Rbgn^[z[y[W
メイン
   新天体発見情報
     Comet C/2025 A6 (Lemmon)
投稿するにはまず登録を

フラット表示 前のトピック | 次のトピック
投稿者 スレッド
佐藤裕久
投稿日時: 2025-3-3 13:03
モデレータ
登録日: 2005-6-12
居住地: 日本
投稿: 2674
オンライン
Comet C/2025 A6 (Lemmon)

D. C. Fulsの通報によると、1月3日、Mt Lemmonサーベイの1.5-m 反射望遠鏡で得たCCD画像
から小惑星状天体を発見した。
この天体が小惑星センターのNEOCP webpage (その後 PCCP webpageに移動)に公表後、R. Weryk 
(西オンタリオ大学,物理および天文学科)は、1月6.5日UT、J. Fairlambが、Maunakeaにある
ハワイ大学 2.2-m反射望遠鏡で、1".3のシーイングで得た3枚の60-秒のフォローアップCCD画
像を測定した。 Werykは、2月21.25日、Maunaeaにある3.6-m Canada-France-Hawaii望遠鏡で、
0".5のシーイングで得た3枚の60-秒のgri-バンド画像では、非常に集光した0".6(半値全幅:
FWHM)の頭部が見え、p.a.95°に約2"の短い尾があると付け加えた。 
Werykはその後、12月2.5日(22.1-22.2等)、12月6.5日(22.0-23.1等)、12月22.6日(22.2-23.0等)、
HaleakalaにあるPan-STARRS2 1.8-m Ritchey-Chretien反射望遠鏡で得た発見前の画像、2024年
11月28.5日(23.6等)、12月6.5-6.6日(23.1等)、12月23.44-23.48日(21.7-22.2等)、12月30.6日
(21.3-21.9等)、HaleakalaにあるPan-STARRS1 1.8-mRitchey-Chretien反射望遠鏡で得た画像と
この彗星を同定した。 Pan-STARRSの画像は彗星の姿を明確に示すには不十分である。

彗星機能の報告は次のとおり、

OC   Date        Reporter            Coma    Tail   PA   Comet     Date
                                                        (T/P)   Reported
T12  2025-01-06  R. Weryk            0".9                 T   2025-01-07.02
T14  2025-02-21  R. Weryk                      2"  95     T   2025-02-21.52

発見位置は次のとおり(PCCP CCNG6P2)、

     2025 UT             R.A. (2000) Decl.       Mag.
     Jan.  3.34215    7 52 21.68   +15 16 09.8   21.6
           3.34727    7 52 21.28   +15 16 11.1   21.7
           3.35240    7 52 20.93   +15 16 13.3   21.1
           3.35754    7 52 20.48   +15 16 14.8   21.6

MPCの楕円軌道要素、位置推算表は次のとおり、

Orbital elements:
    C/2025 A6 (Lemmon)                                                          
Epoch 2025 May 5.0 TT = JDT 2460800.5                                           
T 2025 Nov. 8.51637 TT                                  Veres                   
q   0.5296847            (2000.0)            P               Q                  
z  +0.0080376      Peri.  132.97268     +0.77190159     -0.29458494             
 +/-0.0000858      Node   108.09689     -0.59901313     -0.63385677             
e   0.9957426      Incl.  143.65183     +0.21295824     -0.71515404             
From 95 observations 2024 Nov. 12-2025 Feb. 21, mean residual 0".3.             
                                                                                
Ephemeris:
Date    TT    R. A. (2000) Decl.     Delta      r    Elong.  Phase   m1
2025 01 22    07 26 51.4 +16 57 54   3.3720  4.3392   167.9     2.7  22.2
...
2025 02 06    07 05 15.8 +18 21 44   3.3051  4.1753   148.2     7.2  22.0
...
2025 02 14    06 54 22.8 +19 03 57   3.3035  4.0868   137.5     9.4  21.9
...
2025 02 20    06 46 47.8 +19 33 53   3.3155  4.0198   129.7    10.9  21.8
2025 02 21    06 45 35.5 +19 38 42   3.3185  4.0086   128.4    11.1  21.8
2025 02 22    06 44 24.2 +19 43 29   3.3217  3.9973   127.1    11.4  21.8
...
2025 02 28    06 37 41.1 +20 11 12   3.3461  3.9297   119.5    12.7  21.8
...
2025 03 08    06 29 54.1 +20 45 37   3.3893  3.8388   109.7    14.1  21.7
...
2025 03 23    06 19 10.6 +21 43 12   3.4896  3.6657    92.2    15.8  21.6

(MPEC 2025-D55、CBET 5508)

フラット表示 前のトピック | 次のトピック

題名 投稿者 日時
 » Comet C/2025 A6 (Lemmon) 佐藤裕久 2025-3-3 13:03

投稿するにはまず登録を
 
© 1999 Tsutomu Seki.